Location: Kershaw
(34.5481°N, 80.5823°W)
Time: 15:59:11
(UTC+00:00)

Courier 1B Rocket - Pass Details

Date: 28 September 2022
Orbit: 920 x 1202 km, 28.2° (Epoch: 08 December)

Event Time Altitude Azimuth Distance (km) Brightness Sun altitude
Rises 08:38:37 0° 258° (WSW) 3,625 - -32.3°
Reaches altitude 10° 08:43:27 10° 226° (SW) 2,737 - -31.4°
Maximum altitude 08:45:26 11° 208° (SSW) 2,661 - -31.0°
Drops below altitude 10° 08:47:26 10° 191° (S) 2,792 - -30.6°
Exits shadow 08:50:32 - 169° (S) 3,330 7.7 -30.0°
Sets 08:52:34 0° 159° (SSE) 3,823 8.1 -29.6°
